This is the latest recevied weather packets stored in our database for station/object KI5QCM-13. If no packets are shown the sender has not sent any weather packets the latest 10 day(s).
| Time | Temp. | Humidity | Pressure | Rain* | Wind** | Luminosity | Snow |
|---|---|---|---|---|---|---|---|
| 1788384629 | 38.33° C | 38% | 1012.4 hPa | 0 mm | - | 479 W/m² | - |
| 1788384053 | 38.33° C | 37% | 1012.5 hPa | 0 mm | - | 503 W/m² | - |
| 1788383461 | 38.33° C | 37% | 1012.6 hPa | 0 mm | - | 516 W/m² | - |
| 1788382869 | 38.33° C | 38% | 1012.8 hPa | 0 mm | - | 516 W/m² | - |
| 1788382229 | 38.89° C | 37% | 1012.9 hPa | 0 mm | - | 560 W/m² | - |
| 1788381653 | 38.89° C | 37% | 1013 hPa | 0 mm | - | 585 W/m² | - |
| 1788381077 | 38.33° C | 39% | 1013.3 hPa | 0 mm | - | 574 W/m² | - |
| 1788380433 | 38.33° C | 39% | 1013.3 hPa | 0 mm | - | 587 W/m² | - |
| 1788379835 | 37.78° C | 41% | 1013.3 hPa | 0 mm | - | 627 W/m² | - |
| 1788379269 | 38.33° C | 40% | 1013.5 hPa | 0 mm | - | 642 W/m² | - |
| 1788378677 | 38.89° C | 39% | 1013.6 hPa | 0 mm | - | 650 W/m² | - |
| 1788378033 | 38.33° C | 39% | 1013.8 hPa | 0 mm | - | 672 W/m² | - |
| 1788377461 | 38.33° C | 39% | 1014.1 hPa | 0 mm | - | 694 W/m² | - |
| 1788376822 | 37.78° C | 40% | 1014.3 hPa | 0 mm | - | 676 W/m² | - |
| 1788376234 | 37.78° C | 41% | 1014.3 hPa | 0 mm | - | 699 W/m² | - |
| 1788375669 | 37.22° C | 42% | 1014.3 hPa | 0 mm | - | 657 W/m² | - |
| 1788375029 | 37.78° C | 40% | 1014.5 hPa | 0 mm | - | 666 W/m² | - |
| 1788374453 | 37.78° C | 41% | 1014.7 hPa | 0 mm | - | 650 W/m² | - |
| 1788373877 | 37.22° C | 42% | 1014.8 hPa | 0 mm | - | 664 W/m² | - |
| 1788373226 | 36.67° C | 44% | 1014.9 hPa | 0 mm | - | 649 W/m² | - |
| 1788372645 | 36.67° C | 44% | 1015.1 hPa | 0 mm | - | 655 W/m² | - |
| 1788372069 | 36.67° C | 45% | 1015.1 hPa | 0 mm | - | 720 W/m² | - |
| 1788371493 | 36.67° C | 46% | 1015.2 hPa | 0 mm | - | 698 W/m² | - |
| 1788370869 | 36.11° C | 47% | 1015.4 hPa | 0 mm | - | 709 W/m² | - |
| 1788370277 | 36.11° C | 48% | 1015.6 hPa | 0 mm | - | 718 W/m² | - |
* Rain latest hour (hover to see other rain measurements)
** Current wind speed in m/s (hover to see current wind gust speed)